Regional Weather Roundup
Issued by NWS Sioux Falls, SD

Home | Current Version | Previous Version | Text Only | Print | Product List | Glossary On
Versions: 1 2 3 4 5 6 7 8 9 10 11 12 13 14 15 16 17 18 19 20 21 22 23 24 25 26 27 28 29 30 31 32 33 34 35 36 37 38 39 40 41 42 43 44 45 46 47 48 49 50
476
ASUS43 KFSD 071610
RWRFSD

WEATHER ROUNDUP FOR SE SOUTH DAKOTA/SW MINNESOTA/NW IOWA
NATIONAL WEATHER SERVICE SIOUX FALLS SD
1000 AM CST SUN FEB 07 2016

NOTE: "FAIR" INDICATES FEW OR NO CLOUDS BELOW 12,000 FEET WITH NO
SIGNIFICANT WEATHER AND OR OBSTRUCTIONS TO VISIBILITY.


SDZ038>040-050-052>070-071700-
SOUTHEAST SOUTH DAKOTA

CITY           SKY/WX    TMP DP  RH WIND       PRES   REMARKS
BROOKINGS      MOSUNNY   36  25  64 W29G37    29.76F
CHAMBERLAIN    CLOUDY    36  22  56 W29G41    29.95S
HURON          CLOUDY    36  25  64 NW35G47   29.84F
MADISON        FAIR      36  28  75 W25G36    29.80S
MITCHELL       PTSUNNY   37  27  67 W21G31    29.89F
SIOUX FALLS    MOSUNNY   37  27  67 W21G31    29.83F
WINNER         FAIR      38  18  44 W26G39    29.99S
YANKTON        MOSUNNY   39  25  56 W24G31    29.93S
$$

MNZ071-072-080-081-089-090-097-098-071700-
SOUTHWEST MINNESOTA

CITY           SKY/WX    TMP DP  RH WIND       PRES   REMARKS
FAIRMONT       CLOUDY    37  25  60 W18       29.75S
JACKSON        MOSUNNY   36  27  69 W21G29    29.77S
LUVERNE        MOSUNNY   36  28  75 W22       29.83S
MARSHALL       SUNNY     37  26  64 W26G38    29.72F
MONTEVIDEO     SUNNY     41  27  56 NW16G25   29.71S
PIPESTONE      SUNNY     37  21  52 NW21      29.78S
REDWOOD FALLS  SUNNY     38  27  64 W23G32    29.71S
TRACY          SUNNY     37  28  69 W14G24    29.75S
WINDOM         MOSUNNY   36  28  75 W22       29.75F
WORTHINGTON    CLOUDY    36  25  64 W23       29.80S
$$

IAZ001>003-012>014-020>022-031-032-NEZ013-014-SDZ071-071700-
NORTHWEST IOWA

CITY           SKY/WX    TMP DP  RH WIND       PRES   REMARKS
CHEROKEE       CLOUDY    36  29  76 W15G22    29.88S
DENISON        PTSUNNY   36  27  69 W15G21    29.91S
ESTHERVILLE    CLOUDY    35  27  72 W23       29.78S WCI  23
LE MARS        PTSUNNY   37  19  48 W14G21    29.91S
ORANGE CITY    CLOUDY    36  30  80 W22       29.86S
SHELDON        CLOUDY    34  28  80 W17       29.83S WCI  23
SIOUX CITY     PTSUNNY   41  28  60 NW18      29.93S
SPENCER        CLOUDY    35  27  72 W17       29.82S WCI  25
STORM LAKE     MOSUNNY   36  30  80 W22       29.87S
$$

ABBREVIATIONS USED IN REMARKS
   TC - TEMPERATURE IN CELSIUS
  WCI - WIND CHILL INDEX
   HX - HEAT INDEX
  VSB - VISIBILITY





USA.gov is the U.S. government's official web portal to all federal, state and local government web resources and services.